TimeCDT,TemperatureF,Dew PointF,Humidity,Sea Level PressureIn,VisibilityMPH,Wind Direction,Wind SpeedMPH,Gust SpeedMPH,PrecipitationIn,Events,Conditions,WindDirDegrees,DateUTC
12:15 AM,55.4,46.4,72,29.88,10.0,SSE,5.8,-,N/A,,Clear,150,2013-04-29 05:15:00
12:35 AM,55.4,48.2,77,29.88,10.0,SSE,6.9,-,N/A,,Clear,150,2013-04-29 05:35:00
12:55 AM,55.4,50.0,82,29.88,10.0,SSE,8.1,-,N/A,,Clear,160,2013-04-29 05:55:00
1:15 AM,55.4,50.0,82,29.88,10.0,SSE,6.9,-,N/A,,Clear,160,2013-04-29 06:15:00
1:35 AM,55.4,50.0,82,29.88,10.0,SSE,6.9,-,N/A,,Clear,160,2013-04-29 06:35:00
1:55 AM,55.4,50.0,82,29.88,10.0,SSE,8.1,-,N/A,,Clear,160,2013-04-29 06:55:00
2:15 AM,55.4,50.0,82,29.87,10.0,SSE,9.2,-,N/A,,Clear,160,2013-04-29 07:15:00
2:35 AM,55.4,50.0,82,29.86,10.0,SSE,8.1,-,N/A,,Clear,160,2013-04-29 07:35:00
2:55 AM,55.4,50.0,82,29.86,10.0,South,5.8,-,N/A,,Clear,170,2013-04-29 07:55:00
3:15 AM,55.4,50.0,82,29.87,10.0,South,6.9,-,N/A,,Clear,170,2013-04-29 08:15:00
3:35 AM,55.4,50.0,82,29.88,10.0,SSE,5.8,-,N/A,,Clear,160,2013-04-29 08:35:00
3:55 AM,53.6,50.0,88,29.88,10.0,SSE,5.8,-,N/A,,Clear,150,2013-04-29 08:55:00
4:15 AM,53.6,50.0,88,29.88,10.0,SE,4.6,-,N/A,,Clear,140,2013-04-29 09:15:00
4:35 AM,53.6,50.0,88,29.88,10.0,SE,4.6,-,N/A,,Clear,140,2013-04-29 09:35:00
4:55 AM,51.8,48.2,88,29.88,10.0,SSE,5.8,-,N/A,,Clear,160,2013-04-29 09:55:00
5:15 AM,51.8,48.2,88,29.89,10.0,SSE,6.9,-,N/A,,Clear,160,2013-04-29 10:15:00
5:35 AM,53.6,50.0,88,29.88,10.0,South,8.1,-,N/A,,Clear,170,2013-04-29 10:35:00
5:55 AM,55.4,50.0,82,29.89,10.0,South,8.1,-,N/A,,Clear,170,2013-04-29 10:55:00
6:15 AM,55.4,51.8,88,29.89,10.0,South,6.9,-,N/A,,Clear,170,2013-04-29 11:15:00
6:35 AM,55.4,51.8,88,29.89,10.0,SSE,5.8,-,N/A,,Clear,160,2013-04-29 11:35:00
6:55 AM,55.4,51.8,88,29.90,10.0,SSE,6.9,-,N/A,,Clear,160,2013-04-29 11:55:00
7:15 AM,59.0,51.8,77,29.90,10.0,SSE,8.1,-,N/A,,Clear,160,2013-04-29 12:15:00
7:35 AM,60.8,53.6,77,29.91,10.0,South,6.9,-,N/A,,Clear,180,2013-04-29 12:35:00
7:55 AM,62.6,55.4,77,29.91,10.0,South,8.1,-,N/A,,Clear,180,2013-04-29 12:55:00
8:15 AM,64.4,55.4,73,29.91,10.0,South,12.7,19.6,N/A,,Clear,190,2013-04-29 13:15:00
8:35 AM,64.4,55.4,73,29.91,10.0,South,13.8,20.7,N/A,,Clear,180,2013-04-29 13:35:00
8:55 AM,66.2,57.2,73,29.90,10.0,South,16.1,-,N/A,,Clear,190,2013-04-29 13:55:00
9:15 AM,68.0,59.0,73,29.90,10.0,South,12.7,-,N/A,,Clear,190,2013-04-29 14:15:00
9:35 AM,68.0,59.0,73,29.89,10.0,SSW,16.1,23.0,N/A,,Clear,200,2013-04-29 14:35:00
9:55 AM,69.8,59.0,68,29.88,10.0,SSW,12.7,-,N/A,,Clear,200,2013-04-29 14:55:00
10:15 AM,71.6,59.0,64,29.88,10.0,SSW,19.6,-,N/A,,Clear,200,2013-04-29 15:15:00
10:35 AM,71.6,59.0,64,29.88,10.0,SSW,12.7,25.3,N/A,,Clear,200,2013-04-29 15:35:00
10:55 AM,73.4,60.8,65,29.88,10.0,SSW,16.1,20.7,N/A,,Clear,210,2013-04-29 15:55:00
11:15 AM,75.2,60.8,61,29.87,10.0,SSW,16.1,-,N/A,,Clear,200,2013-04-29 16:15:00
11:35 AM,77.0,60.8,57,29.87,10.0,SSW,11.5,20.7,N/A,,Clear,200,2013-04-29 16:35:00
11:55 AM,77.0,60.8,57,29.86,10.0,SSW,12.7,18.4,N/A,,Clear,210,2013-04-29 16:55:00
12:15 PM,78.8,60.8,54,29.86,10.0,SSW,13.8,20.7,N/A,,Clear,210,2013-04-29 17:15:00
12:35 PM,78.8,59.0,51,29.85,10.0,SSW,15.0,23.0,N/A,,Clear,200,2013-04-29 17:35:00
12:55 PM,78.8,60.8,54,29.84,10.0,SSW,13.8,21.9,N/A,,Clear,210,2013-04-29 17:55:00
1:15 PM,78.8,59.0,51,29.83,10.0,SSW,16.1,-,N/A,,Clear,200,2013-04-29 18:15:00
1:35 PM,80.6,59.0,48,29.83,10.0,SSW,15.0,-,N/A,,Clear,210,2013-04-29 18:35:00
1:55 PM,80.6,59.0,48,29.82,10.0,SSW,16.1,23.0,N/A,,Clear,210,2013-04-29 18:55:00
2:15 PM,80.6,59.0,48,29.82,10.0,SW,17.3,25.3,N/A,,Clear,220,2013-04-29 19:15:00
2:35 PM,80.6,57.2,45,29.81,10.0,SSW,12.7,23.0,N/A,,Clear,200,2013-04-29 19:35:00
2:55 PM,80.6,59.0,48,29.81,10.0,SSW,17.3,20.7,N/A,,Clear,200,2013-04-29 19:55:00
3:15 PM,80.6,55.4,42,29.80,10.0,SSW,16.1,19.6,N/A,,Clear,210,2013-04-29 20:15:00
3:35 PM,80.6,53.6,39,29.79,10.0,SSW,16.1,-,N/A,,Clear,210,2013-04-29 20:35:00
3:55 PM,80.6,53.6,39,29.78,10.0,SSW,16.1,20.7,N/A,,Clear,210,2013-04-29 20:55:00
4:15 PM,82.4,53.6,37,29.78,10.0,SSW,17.3,-,N/A,,Clear,210,2013-04-29 21:15:00
4:35 PM,82.4,53.6,37,29.78,10.0,SSW,15.0,21.9,N/A,,Clear,200,2013-04-29 21:35:00
4:55 PM,80.6,53.6,39,29.78,10.0,SSW,13.8,-,N/A,,Clear,210,2013-04-29 21:55:00
5:15 PM,80.6,55.4,42,29.78,10.0,SSW,11.5,-,N/A,,Clear,200,2013-04-29 22:15:00
5:35 PM,80.6,55.4,42,29.77,10.0,South,16.1,21.9,N/A,,Clear,190,2013-04-29 22:35:00
5:55 PM,78.8,55.4,44,29.78,10.0,South,16.1,-,N/A,,Clear,190,2013-04-29 22:55:00
6:15 PM,78.8,55.4,44,29.77,10.0,South,15.0,19.6,N/A,,Clear,190,2013-04-29 23:15:00
6:35 PM,78.8,55.4,44,29.77,10.0,SSW,10.4,-,N/A,,Clear,200,2013-04-29 23:35:00
6:55 PM,77.0,57.2,50,29.77,10.0,South,11.5,-,N/A,,Clear,190,2013-04-29 23:55:00
7:15 PM,77.0,57.2,50,29.77,10.0,South,10.4,-,N/A,,Clear,180,2013-04-30 00:15:00
7:35 PM,75.2,55.4,50,29.77,10.0,South,10.4,-,N/A,,Clear,180,2013-04-30 00:35:00
7:55 PM,73.4,55.4,53,29.77,10.0,South,9.2,-,N/A,,Clear,180,2013-04-30 00:55:00
8:15 PM,73.4,53.6,50,29.78,10.0,South,6.9,-,N/A,,Clear,180,2013-04-30 01:15:00
8:35 PM,69.8,53.6,56,29.78,10.0,South,8.1,-,N/A,,Clear,170,2013-04-30 01:35:00
8:55 PM,69.8,53.6,56,29.79,10.0,SSE,8.1,-,N/A,,Clear,160,2013-04-30 01:55:00
9:15 PM,69.8,51.8,53,29.79,10.0,SSE,8.1,-,N/A,,Clear,160,2013-04-30 02:15:00
9:35 PM,69.8,53.6,56,29.80,10.0,South,10.4,-,N/A,,Clear,170,2013-04-30 02:35:00
9:55 PM,69.8,53.6,56,29.80,10.0,South,11.5,-,N/A,,Clear,170,2013-04-30 02:55:00
10:15 PM,68.0,51.8,56,29.80,10.0,SSE,9.2,-,N/A,,Clear,160,2013-04-30 03:15:00
10:35 PM,68.0,51.8,56,29.81,10.0,SSE,10.4,-,N/A,,Clear,160,2013-04-30 03:35:00
10:55 PM,66.2,51.8,60,29.81,10.0,SSE,8.1,-,N/A,,Clear,160,2013-04-30 03:55:00
11:15 PM,64.4,51.8,64,29.81,10.0,SSE,9.2,-,N/A,,Clear,160,2013-04-30 04:15:00
11:35 PM,64.4,51.8,64,29.81,10.0,SSE,9.2,-,N/A,,Clear,160,2013-04-30 04:35:00
11:55 PM,64.4,51.8,64,29.81,10.0,SSE,8.1,-,N/A,,Clear,160,2013-04-30 04:55:00